Time,TemperatureF,DewpointF,PressureIn,WindDirection,WindDirectionDegrees,WindSpeedMPH,WindSpeedGustMPH,Humidity,HourlyPrecipIn,Conditions,Clouds,dailyrainin,SoftwareType,DateUTC
2013-02-28 00:10:00,31.8,27.5,30.00,SE,141,2.0,2.0,84,0.00,,,0.00,Wunderground v.1.15,2013-02-28 06:10:00,
2013-02-28 00:20:00,32.0,27.4,30.00,West,266,1.0,14.0,83,0.00,,,0.00,Wunderground v.1.15,2013-02-28 06:20:00,
2013-02-28 00:29:00,32.1,27.5,30.00,WSW,248,1.0,1.0,83,0.00,,,0.00,Wunderground v.1.15,2013-02-28 06:29:00,
2013-02-28 00:39:00,32.1,27.5,30.00,SSE,148,1.0,14.0,83,0.00,,,0.00,Wunderground v.1.15,2013-02-28 06:39:00,
2013-02-28 00:50:00,32.2,27.6,30.00,ESE,115,1.0,1.0,83,0.00,,,0.00,Wunderground v.1.15,2013-02-28 06:50:00,
2013-02-28 01:00:00,32.1,27.5,30.01,SW,233,1.0,14.0,83,0.00,,,0.00,Wunderground v.1.15,2013-02-28 07:00:00,
2013-02-28 01:09:00,32.1,27.5,30.01,SW,215,1.0,14.0,83,0.00,,,0.00,Wunderground v.1.15,2013-02-28 07:09:00,
2013-02-28 01:20:00,32.1,27.5,30.00,East,93,1.0,1.0,83,0.00,,,0.00,Wunderground v.1.15,2013-02-28 07:20:00,
2013-02-28 01:30:00,32.1,27.5,30.00,NNE,20,1.0,1.0,83,0.00,,,0.00,Wunderground v.1.15,2013-02-28 07:30:00,
2013-02-28 01:40:00,32.1,27.5,30.00,SW,214,1.0,1.0,83,0.00,,,0.00,Wunderground v.1.15,2013-02-28 07:40:00,
2013-02-28 01:49:00,32.2,27.6,30.01,WSW,242,2.0,14.0,83,0.00,,,0.00,Wunderground v.1.15,2013-02-28 07:49:00,
2013-02-28 02:00:00,32.1,27.2,30.01,West,259,1.0,14.0,82,0.00,,,0.00,Wunderground v.1.15,2013-02-28 08:00:00,
2013-02-28 02:10:00,32.1,27.2,30.01,SE,139,2.0,2.0,82,0.00,,,0.00,Wunderground v.1.15,2013-02-28 08:10:00,
2013-02-28 02:15:00,32.1,27.2,30.01,SW,235,2.0,14.0,82,0.00,,,0.00,Wunderground v.1.15,2013-02-28 08:15:00,
2013-02-28 02:25:00,32.1,27.2,30.01,South,186,1.0,14.0,82,0.00,,,0.00,Wunderground v.1.15,2013-02-28 08:25:00,
2013-02-28 02:35:00,32.0,27.1,30.01,WSW,255,1.0,14.0,82,0.00,,,0.00,Wunderground v.1.15,2013-02-28 08:35:00,
2013-02-28 02:45:00,32.0,27.1,30.02,ESE,117,2.0,3.0,82,0.00,,,0.00,Wunderground v.1.15,2013-02-28 08:45:00,
2013-02-28 02:50:00,31.9,27.0,30.02,SSW,205,2.0,2.0,82,0.00,,,0.00,Wunderground v.1.15,2013-02-28 08:50:00,
2013-02-28 03:00:00,31.8,26.9,30.02,WSW,238,1.0,1.0,82,0.00,,,0.00,Wunderground v.1.15,2013-02-28 09:00:00,
2013-02-28 03:09:00,31.7,26.8,30.02,SE,145,1.0,1.0,82,0.00,,,0.00,Wunderground v.1.15,2013-02-28 09:09:00,
2013-02-28 03:19:00,31.6,26.7,30.02,SW,236,2.0,14.0,82,0.00,,,0.00,Wunderground v.1.15,2013-02-28 09:19:00,
2013-02-28 03:25:00,31.6,26.7,30.02,ESE,113,2.0,14.0,82,0.00,,,0.00,Wunderground v.1.15,2013-02-28 09:25:00,
2013-02-28 03:35:00,31.4,26.5,30.02,SSE,156,2.0,14.0,82,0.00,,,0.00,Wunderground v.1.15,2013-02-28 09:35:00,
2013-02-28 03:45:00,31.3,26.4,30.02,SSW,200,2.0,14.0,82,0.00,,,0.00,Wunderground v.1.15,2013-02-28 09:45:00,
2013-02-28 03:54:00,31.1,26.5,30.03,SSE,159,1.0,14.0,83,0.00,,,0.00,Wunderground v.1.15,2013-02-28 09:54:00,
2013-02-28 04:00:00,31.0,26.4,30.03,ESE,109,1.0,1.0,83,0.00,,,0.00,Wunderground v.1.15,2013-02-28 10:00:00,
2013-02-28 04:10:00,30.9,26.3,30.02,SW,222,1.0,1.0,83,0.00,,,0.00,Wunderground v.1.15,2013-02-28 10:10:00,
2013-02-28 04:20:00,30.7,26.1,30.02,WSW,256,1.0,14.0,83,0.00,,,0.00,Wunderground v.1.15,2013-02-28 10:20:00,
2013-02-28 04:29:00,30.5,26.2,30.03,SW,222,1.0,14.0,84,0.00,,,0.00,Wunderground v.1.15,2013-02-28 10:29:00,
2013-02-28 04:40:00,30.3,26.0,30.03,SSW,200,1.0,14.0,84,0.00,,,0.00,Wunderground v.1.15,2013-02-28 10:40:00,
2013-02-28 04:50:00,30.2,26.2,30.04,SSE,152,0.0,14.0,85,0.00,,,0.00,Wunderground v.1.15,2013-02-28 10:50:00,
2013-02-28 04:59:00,30.3,26.3,30.05,SW,229,1.0,1.0,85,0.00,,,0.00,Wunderground v.1.15,2013-02-28 10:59:00,
2013-02-28 05:09:00,30.4,26.4,30.05,SW,225,1.0,1.0,85,0.00,,,0.00,Wunderground v.1.15,2013-02-28 11:09:00,
2013-02-28 05:20:00,30.6,26.6,30.05,ESE,113,1.0,1.0,85,0.00,,,0.00,Wunderground v.1.15,2013-02-28 11:20:00,
2013-02-28 05:30:00,30.6,26.6,30.06,SW,235,1.0,1.0,85,0.00,,,0.00,Wunderground v.1.15,2013-02-28 11:30:00,
2013-02-28 05:39:00,30.6,26.6,30.06,SW,220,2.0,2.0,85,0.00,,,0.00,Wunderground v.1.15,2013-02-28 11:39:00,
2013-02-28 05:49:00,30.5,26.8,30.06,SW,214,0.0,14.0,86,0.00,,,0.00,Wunderground v.1.15,2013-02-28 11:49:00,
2013-02-28 06:00:00,30.5,26.8,30.06,WSW,251,1.0,1.0,86,0.00,,,0.00,Wunderground v.1.15,2013-02-28 12:00:00,
2013-02-28 06:10:00,30.5,26.5,30.07,SSW,195,2.0,14.0,85,0.00,,,0.00,Wunderground v.1.15,2013-02-28 12:10:00,
2013-02-28 06:19:00,30.5,26.5,30.07,SSW,207,2.0,2.0,85,0.00,,,0.00,Wunderground v.1.15,2013-02-28 12:19:00,
2013-02-28 06:30:00,30.4,26.7,30.08,South,186,0.0,14.0,86,0.00,,,0.00,Wunderground v.1.15,2013-02-28 12:30:00,
2013-02-28 06:40:00,30.4,26.7,30.08,WSW,242,1.0,1.0,86,0.00,,,0.00,Wunderground v.1.15,2013-02-28 12:40:00,
2013-02-28 06:50:00,30.3,26.6,30.08,WSW,252,2.0,14.0,86,0.00,,,0.00,Wunderground v.1.15,2013-02-28 12:50:00,
2013-02-28 06:59:00,30.3,26.6,30.08,WSW,250,2.0,14.0,86,0.00,,,0.00,Wunderground v.1.15,2013-02-28 12:59:00,
2013-02-28 07:10:00,30.3,26.6,30.08,WSW,256,2.0,2.0,86,0.00,,,0.00,Wunderground v.1.15,2013-02-28 13:10:00,
2013-02-28 07:20:00,30.2,26.5,30.09,SSW,207,1.0,14.0,86,0.00,,,0.00,Wunderground v.1.15,2013-02-28 13:20:00,
2013-02-28 07:29:00,30.2,26.5,30.09,SSE,153,1.0,14.0,86,0.00,,,0.00,Wunderground v.1.15,2013-02-28 13:29:00,
2013-02-28 07:39:00,30.0,26.3,30.10,WSW,239,3.0,14.0,86,0.00,,,0.00,Wunderground v.1.15,2013-02-28 13:39:00,
2013-02-28 07:50:00,30.0,26.3,30.10,WSW,243,2.0,2.0,86,0.00,,,0.00,Wunderground v.1.15,2013-02-28 13:50:00,
2013-02-28 07:55:00,30.1,26.4,30.11,WSW,250,0.0,14.0,86,0.00,,,0.00,Wunderground v.1.15,2013-02-28 13:55:00,
2013-02-28 08:05:00,29.8,25.8,30.11,West,264,2.0,14.0,85,0.00,,,0.00,Wunderground v.1.15,2013-02-28 14:05:00,
2013-02-28 08:10:00,29.7,25.7,30.11,West,264,2.0,14.0,85,0.00,,,0.00,Wunderground v.1.15,2013-02-28 14:10:00,
2013-02-28 08:20:00,29.6,25.6,30.11,West,263,3.0,3.0,85,0.00,,,0.00,Wunderground v.1.15,2013-02-28 14:20:00,
2013-02-28 08:25:00,29.5,25.5,30.11,SW,224,3.0,14.0,85,0.00,,,0.00,Wunderground v.1.15,2013-02-28 14:25:00,
2013-02-28 08:34:00,29.4,25.4,30.12,SSW,209,3.0,14.0,85,0.00,,,0.00,Wunderground v.1.15,2013-02-28 14:34:00,
2013-02-28 08:44:00,29.5,25.5,30.12,WSW,238,2.0,5.0,85,0.00,,,0.00,Wunderground v.1.15,2013-02-28 14:44:00,
2013-02-28 08:50:00,29.4,25.4,30.13,SSE,160,3.0,3.0,85,0.00,,,0.00,Wunderground v.1.15,2013-02-28 14:50:00,
2013-02-28 08:55:00,29.6,25.9,30.13,West,267,2.0,14.0,86,0.00,,,0.00,Wunderground v.1.15,2013-02-28 14:55:00,
2013-02-28 09:05:00,29.6,25.6,30.13,SE,140,2.0,3.0,85,0.00,,,0.00,Wunderground v.1.15,2013-02-28 15:05:00,
2013-02-28 09:14:00,29.4,25.4,30.14,SW,222,3.0,14.0,85,0.00,,,0.00,Wunderground v.1.15,2013-02-28 15:14:00,
2013-02-28 09:24:00,29.6,25.6,30.14,SW,219,1.0,14.0,85,0.00,,,0.00,Wunderground v.1.15,2013-02-28 15:24:00,
2013-02-28 09:29:00,29.7,25.7,30.14,SSW,212,1.0,14.0,85,0.00,,,0.00,Wunderground v.1.15,2013-02-28 15:29:00,
2013-02-28 09:35:00,29.8,25.6,30.14,SSW,193,0.0,14.0,84,0.00,,,0.00,Wunderground v.1.15,2013-02-28 15:35:00,
2013-02-28 09:45:00,29.5,25.3,30.14,SW,228,3.0,14.0,84,0.00,,,0.00,Wunderground v.1.15,2013-02-28 15:45:00,
2013-02-28 09:55:00,29.2,25.0,30.14,WSW,252,3.0,14.0,84,0.00,,,0.00,Wunderground v.1.15,2013-02-28 15:55:00,
2013-02-28 10:04:00,29.3,25.1,30.15,WSW,253,3.0,14.0,84,0.00,,,0.00,Wunderground v.1.15,2013-02-28 16:04:00,
2013-02-28 10:15:00,29.7,25.7,30.14,SW,236,2.0,14.0,85,0.00,,,0.00,Wunderground v.1.15,2013-02-28 16:15:00,
2013-02-28 10:25:00,29.8,25.3,30.15,WSW,238,2.0,14.0,83,0.00,,,0.00,Wunderground v.1.15,2013-02-28 16:25:00,
2013-02-28 10:30:00,29.7,25.5,30.15,SW,233,3.0,14.0,84,0.00,,,0.00,Wunderground v.1.15,2013-02-28 16:30:00,
2013-02-28 10:40:00,29.4,25.2,30.15,SW,224,3.0,14.0,84,0.00,,,0.00,Wunderground v.1.15,2013-02-28 16:40:00,
2013-02-28 10:49:00,29.7,25.5,30.15,SSE,149,2.0,14.0,84,0.00,,,0.00,Wunderground v.1.15,2013-02-28 16:49:00,
2013-02-28 10:59:00,29.9,25.7,30.15,East,79,2.0,2.0,84,0.00,,,0.00,Wunderground v.1.15,2013-02-28 16:59:00,
2013-02-28 11:05:00,29.9,25.7,30.15,WSW,248,2.0,14.0,84,0.00,,,0.00,Wunderground v.1.15,2013-02-28 17:05:00,
2013-02-28 11:10:00,29.9,25.7,30.16,SSE,148,3.0,3.0,84,0.00,,,0.00,Wunderground v.1.15,2013-02-28 17:10:00,
2013-02-28 11:20:00,29.9,25.9,30.16,SSW,211,3.0,3.0,85,0.00,,,0.00,Wunderground v.1.15,2013-02-28 17:20:00,
2013-02-28 11:29:00,30.3,26.0,30.16,SE,136,2.0,2.0,84,0.00,,,0.00,Wunderground v.1.15,2013-02-28 17:29:00,
2013-02-28 11:40:00,30.2,25.9,30.16,WSW,238,3.0,14.0,84,0.00,,,0.00,Wunderground v.1.15,2013-02-28 17:40:00,
2013-02-28 11:50:00,30.4,26.1,30.16,WSW,249,2.0,14.0,84,0.00,,,0.00,Wunderground v.1.15,2013-02-28 17:50:00,
2013-02-28 11:55:00,30.5,26.2,30.16,SSW,205,2.0,14.0,84,0.00,,,0.00,Wunderground v.1.15,2013-02-28 17:55:00,
2013-02-28 12:04:00,30.6,26.3,30.16,WSW,249,2.0,14.0,84,0.00,,,0.00,Wunderground v.1.15,2013-02-28 18:04:00,
2013-02-28 12:14:00,30.7,26.1,30.16,West,262,2.0,14.0,83,0.00,,,0.00,Wunderground v.1.15,2013-02-28 18:14:00,
2013-02-28 12:25:00,30.6,26.3,30.16,SSW,213,3.0,14.0,84,0.00,,,0.00,Wunderground v.1.15,2013-02-28 18:25:00,
2013-02-28 12:35:00,30.6,26.3,30.16,WSW,240,3.0,14.0,84,0.00,,,0.00,Wunderground v.1.15,2013-02-28 18:35:00,
2013-02-28 12:44:00,31.0,26.7,30.15,WSW,247,1.0,14.0,84,0.00,,,0.00,Wunderground v.1.15,2013-02-28 18:44:00,
2013-02-28 12:54:00,31.6,27.0,30.15,SSW,207,1.0,14.0,83,0.00,,,0.00,Wunderground v.1.15,2013-02-28 18:54:00,
2013-02-28 12:59:00,31.7,26.8,30.15,SE,141,2.0,2.0,82,0.00,,,0.00,Wunderground v.1.15,2013-02-28 18:59:00,
2013-02-28 13:05:00,32.0,27.1,30.15,SW,228,2.0,14.0,82,0.00,,,0.00,Wunderground v.1.15,2013-02-28 19:05:00,
2013-02-28 13:10:00,32.7,27.8,30.15,SW,233,2.0,2.0,82,0.00,,,0.00,Wunderground v.1.15,2013-02-28 19:10:00,
2013-02-28 13:20:00,33.8,28.3,30.15,WSW,258,1.0,14.0,80,0.00,,,0.00,Wunderground v.1.15,2013-02-28 19:20:00,
2013-02-28 13:29:00,34.4,28.2,30.15,West,264,1.0,1.0,78,0.00,,,0.00,Wunderground v.1.15,2013-02-28 19:29:00,
2013-02-28 13:40:00,34.7,28.2,30.14,SSE,167,1.0,1.0,77,0.00,,,0.00,Wunderground v.1.15,2013-02-28 19:40:00,
2013-02-28 13:50:00,34.7,28.5,30.14,SSW,201,2.0,14.0,78,0.00,,,0.00,Wunderground v.1.15,2013-02-28 19:50:00,
2013-02-28 14:00:00,34.0,27.5,30.14,SSE,158,3.0,3.0,77,0.00,,,0.00,Wunderground v.1.15,2013-02-28 20:00:00,
2013-02-28 14:05:00,33.9,27.4,30.15,SSW,203,2.0,14.0,77,0.00,,,0.00,Wunderground v.1.15,2013-02-28 20:05:00,
2013-02-28 14:15:00,33.6,27.5,30.15,SSE,166,2.0,14.0,78,0.00,,,0.00,Wunderground v.1.15,2013-02-28 20:15:00,
2013-02-28 14:24:00,33.1,27.3,30.15,South,190,2.0,4.0,79,0.00,,,0.00,Wunderground v.1.15,2013-02-28 20:24:00,
2013-02-28 14:35:00,33.0,27.5,30.15,ESE,103,2.0,14.0,80,0.00,,,0.00,Wunderground v.1.15,2013-02-28 20:35:00,
2013-02-28 14:45:00,33.0,27.5,30.15,SE,138,2.0,14.0,80,0.00,,,0.00,Wunderground v.1.15,2013-02-28 20:45:00,
2013-02-28 14:55:00,33.3,27.5,30.15,SE,139,2.0,14.0,79,0.00,,,0.00,Wunderground v.1.15,2013-02-28 20:55:00,
2013-02-28 15:04:00,33.5,27.7,30.16,East,93,2.0,14.0,79,0.00,,,0.00,Wunderground v.1.15,2013-02-28 21:04:00,
2013-02-28 15:10:00,33.3,27.5,30.16,SW,228,1.0,1.0,79,0.00,,,0.00,Wunderground v.1.15,2013-02-28 21:10:00,
2013-02-28 15:20:00,33.2,27.4,30.16,SSW,203,1.0,14.0,79,0.00,,,0.00,Wunderground v.1.15,2013-02-28 21:20:00,
2013-02-28 15:25:00,33.3,27.8,30.16,ESE,114,1.0,14.0,80,0.00,,,0.00,Wunderground v.1.15,2013-02-28 21:25:00,
2013-02-28 15:35:00,33.6,27.8,30.16,SW,217,0.0,2.0,79,0.00,,,0.00,Wunderground v.1.15,2013-02-28 21:35:00,
2013-02-28 15:44:00,33.5,27.7,30.16,SSW,200,1.0,14.0,79,0.00,,,0.00,Wunderground v.1.15,2013-02-28 21:44:00,
2013-02-28 15:54:00,33.2,27.4,30.16,ESE,114,1.0,14.0,79,0.00,,,0.00,Wunderground v.1.15,2013-02-28 21:54:00,
2013-02-28 16:05:00,33.3,27.8,30.16,NW,307,0.0,14.0,80,0.00,,,0.00,Wunderground v.1.15,2013-02-28 22:05:00,
2013-02-28 16:15:00,33.0,27.5,30.16,WSW,242,1.0,14.0,80,0.00,,,0.00,Wunderground v.1.15,2013-02-28 22:15:00,
2013-02-28 16:25:00,32.7,27.2,30.16,SW,225,2.0,14.0,80,0.00,,,0.00,Wunderground v.1.15,2013-02-28 22:25:00,
2013-02-28 16:29:00,32.5,27.3,30.16,SSW,203,2.0,2.0,81,0.00,,,0.00,Wunderground v.1.15,2013-02-28 22:29:00,
2013-02-28 16:39:00,32.4,26.9,30.16,SW,223,1.0,14.0,80,0.00,,,0.00,Wunderground v.1.15,2013-02-28 22:39:00,
2013-02-28 16:45:00,32.4,27.2,30.15,SW,225,1.0,14.0,81,0.00,,,0.00,Wunderground v.1.15,2013-02-28 22:45:00,
2013-02-28 16:50:00,32.3,26.8,30.16,East,100,2.0,2.0,80,0.00,,,0.00,Wunderground v.1.15,2013-02-28 22:50:00,
2013-02-28 17:00:00,32.2,27.0,30.16,WSW,238,1.0,1.0,81,0.00,,,0.00,Wunderground v.1.15,2013-02-28 23:00:00,
2013-02-28 17:10:00,32.1,26.9,30.16,WSW,249,1.0,1.0,81,0.00,,,0.00,Wunderground v.1.15,2013-02-28 23:10:00,
2013-02-28 17:19:00,32.0,26.8,30.16,SW,236,1.0,1.0,81,0.00,,,0.00,Wunderground v.1.15,2013-02-28 23:19:00,
2013-02-28 17:30:00,32.0,26.8,30.17,South,188,0.0,14.0,81,0.00,,,0.00,Wunderground v.1.15,2013-02-28 23:30:00,
2013-02-28 17:40:00,31.9,26.7,30.17,SSW,210,0.0,14.0,81,0.00,,,0.00,Wunderground v.1.15,2013-02-28 23:40:00,
2013-02-28 17:50:00,31.7,26.8,30.17,WSW,253,0.0,14.0,82,0.00,,,0.00,Wunderground v.1.15,2013-02-28 23:50:00,
2013-02-28 17:59:00,31.6,26.7,30.17,ESE,102,1.0,14.0,82,0.00,,,0.00,Wunderground v.1.15,2013-02-28 23:59:00,
2013-02-28 18:10:00,31.5,26.6,30.17,ESE,113,0.0,14.0,82,0.00,,,0.00,Wunderground v.1.15,2013-03-01 00:10:00,
2013-02-28 18:20:00,31.4,26.5,30.18,SSW,207,1.0,14.0,82,0.00,,,0.00,Wunderground v.1.15,2013-03-01 00:20:00,
2013-02-28 18:30:00,31.3,26.4,30.18,WSW,255,1.0,14.0,82,0.00,,,0.00,Wunderground v.1.15,2013-03-01 00:30:00,
2013-02-28 18:39:00,31.3,26.4,30.18,WSW,252,0.0,14.0,82,0.00,,,0.00,Wunderground v.1.15,2013-03-01 00:39:00,
2013-02-28 18:45:00,31.2,26.3,30.18,West,273,1.0,14.0,82,0.00,,,0.00,Wunderground v.1.15,2013-03-01 00:45:00,
2013-02-28 18:55:00,31.2,26.6,30.18,South,186,0.0,14.0,83,0.00,,,0.00,Wunderground v.1.15,2013-03-01 00:55:00,
2013-02-28 19:05:00,31.0,26.4,30.18,SW,228,0.0,14.0,83,0.00,,,0.00,Wunderground v.1.15,2013-03-01 01:05:00,
2013-02-28 19:14:00,31.0,26.4,30.18,South,169,0.0,14.0,83,0.00,,,0.00,Wunderground v.1.15,2013-03-01 01:14:00,
2013-02-28 19:20:00,30.9,26.3,30.18,SSW,207,0.0,14.0,83,0.00,,,0.00,Wunderground v.1.15,2013-03-01 01:20:00,
2013-02-28 19:30:00,30.8,26.5,30.17,SSW,207,0.0,14.0,84,0.00,,,0.00,Wunderground v.1.15,2013-03-01 01:30:00,
2013-02-28 19:35:00,30.7,26.4,30.18,SSW,207,0.0,14.0,84,0.00,,,0.00,Wunderground v.1.15,2013-03-01 01:35:00,
2013-02-28 19:45:00,30.8,26.5,30.18,SW,228,0.0,14.0,84,0.00,,,0.00,Wunderground v.1.15,2013-03-01 01:45:00,
2013-02-28 19:54:00,30.8,26.5,30.18,SSE,162,0.0,14.0,84,0.00,,,0.00,Wunderground v.1.15,2013-03-01 01:54:00,
2013-02-28 20:05:00,30.8,26.5,30.18,WSW,250,0.0,14.0,84,0.00,,,0.00,Wunderground v.1.15,2013-03-01 02:05:00,
2013-02-28 20:15:00,30.7,26.4,30.18,SW,219,0.0,14.0,84,0.00,,,0.00,Wunderground v.1.15,2013-03-01 02:15:00,
2013-02-28 20:25:00,30.6,26.6,30.18,SW,230,0.0,14.0,85,0.00,,,0.00,Wunderground v.1.15,2013-03-01 02:25:00,
2013-02-28 20:34:00,30.6,26.3,30.18,SW,233,0.0,14.0,84,0.00,,,0.00,Wunderground v.1.15,2013-03-01 02:34:00,
2013-02-28 20:45:00,30.6,26.6,30.18,SW,226,0.0,14.0,85,0.00,,,0.00,Wunderground v.1.15,2013-03-01 02:45:00,
2013-02-28 20:55:00,30.5,26.2,30.18,ESE,106,0.0,14.0,84,0.00,,,0.00,Wunderground v.1.15,2013-03-01 02:55:00,
2013-02-28 21:05:00,30.5,26.2,30.18,SW,218,0.0,14.0,84,0.00,,,0.00,Wunderground v.1.15,2013-03-01 03:05:00,
2013-02-28 21:14:00,30.4,26.1,30.18,West,278,0.0,14.0,84,0.00,,,0.00,Wunderground v.1.15,2013-03-01 03:14:00,
2013-02-28 21:20:00,30.4,26.1,30.19,West,271,0.0,14.0,84,0.00,,,0.00,Wunderground v.1.15,2013-03-01 03:20:00,
2013-02-28 21:30:00,30.3,26.0,30.18,SSW,212,0.0,14.0,84,0.00,,,0.00,Wunderground v.1.15,2013-03-01 03:30:00,
2013-02-28 21:40:00,30.4,26.1,30.18,SSW,195,0.0,14.0,84,0.00,,,0.00,Wunderground v.1.15,2013-03-01 03:40:00,
2013-02-28 21:49:00,30.4,26.1,30.18,SSE,148,0.0,14.0,84,0.00,,,0.00,Wunderground v.1.15,2013-03-01 03:49:00,
2013-02-28 22:00:00,30.4,26.1,30.18,SW,230,0.0,14.0,84,0.00,,,0.00,Wunderground v.1.15,2013-03-01 04:00:00,
2013-02-28 22:10:00,30.4,26.1,30.18,WSW,250,1.0,14.0,84,0.00,,,0.00,Wunderground v.1.15,2013-03-01 04:10:00,
2013-02-28 22:19:00,30.4,26.1,30.18,SW,230,0.0,14.0,84,0.00,,,0.00,Wunderground v.1.15,2013-03-01 04:19:00,
2013-02-28 22:29:00,30.4,26.1,30.18,WSW,246,1.0,14.0,84,0.00,,,0.00,Wunderground v.1.15,2013-03-01 04:29:00,
2013-02-28 22:40:00,30.4,26.1,30.18,West,260,1.0,14.0,84,0.00,,,0.00,Wunderground v.1.15,2013-03-01 04:40:00,
2013-02-28 22:50:00,30.3,26.0,30.18,SW,222,1.0,14.0,84,0.00,,,0.00,Wunderground v.1.15,2013-03-01 04:50:00,
2013-02-28 22:59:00,30.2,26.2,30.18,SSW,195,1.0,1.0,85,0.00,,,0.00,Wunderground v.1.15,2013-03-01 04:59:00,
2013-02-28 23:04:00,30.2,26.2,30.18,WSW,238,1.0,14.0,85,0.00,,,0.00,Wunderground v.1.15,2013-03-01 05:04:00,
2013-02-28 23:09:00,30.2,26.2,30.18,ESE,117,1.0,14.0,85,0.00,,,0.00,Wunderground v.1.15,2013-03-01 05:09:00,
2013-02-28 23:14:00,30.2,26.2,30.18,WSW,240,0.0,14.0,85,0.00,,,0.00,Wunderground v.1.15,2013-03-01 05:14:00,
2013-02-28 23:20:00,30.2,26.2,30.18,SW,222,1.0,1.0,85,0.00,,,0.00,Wunderground v.1.15,2013-03-01 05:20:00,
2013-02-28 23:25:00,30.2,26.2,30.17,WSW,252,1.0,14.0,85,0.00,,,0.00,Wunderground v.1.15,2013-03-01 05:25:00,
2013-02-28 23:30:00,30.1,26.1,30.17,SW,224,1.0,14.0,85,0.00,,,0.00,Wunderground v.1.15,2013-03-01 05:30:00,
2013-02-28 23:35:00,30.1,26.1,30.17,SSW,211,1.0,14.0,85,0.00,,,0.00,Wunderground v.1.15,2013-03-01 05:35:00,
2013-02-28 23:40:00,30.1,26.1,30.17,South,188,1.0,1.0,85,0.00,,,0.00,Wunderground v.1.15,2013-03-01 05:40:00,
2013-02-28 23:45:00,30.0,26.0,30.17,SSW,210,0.0,14.0,85,0.00,,,0.00,Wunderground v.1.15,2013-03-01 05:45:00,
2013-02-28 23:55:00,30.0,26.0,30.17,SSW,200,0.0,14.0,85,0.00,,,0.00,Wunderground v.1.15,2013-03-01 05:55:00,